Temperature
17 17 17 17 17 17 17 17 17 17 17 17 17 17 17 17 17 17 17 17 17 17 17 17 17 17 16 16 16 16 16 16 16 16 16 16 16 16 16 15 15 15 15
17 17 17 17 17 17 17 17 17 17 17 17 17 17 17 17 17 17 17 17 17 17 17 17 17 17 16 16 16 16 16 16 16 16 16 16 16 16 16 15 15 15 15
17 17 17 17 17 17 17 17 17 17 17 17 17 17 17 17 17 17 17 17 17 17 17 17 17 16 16 16 16 16 16 16 16 16 16 16 16 16 15 15 15 15 15
17 17 17 17 17 17 17 17 17 17 17 17 17 17 17 17 17 17 17 17 17 17 17 16 16 16 16 16 16 16 16 16 16 16 16 16 16 16 15 15 15 15 15
17 17 17 17 17 17 17 17 17 17 17 17 17 17 17 17 17 17 17 17 17 17 16 16 16 16 16 16 16 16 16 16 16 16 16 16 15 15 15 15 15 15 15
17 17 17 17 17 17 17 17 17 17 17 17 17 17 17 17 17 17 17 17 17 17 16 16 16 16 16 16 16 16 16 16 16 16 16 16 15 15 15 15 15 15 15
17 17 17 17 17 17 17 17 17 17 17 17 17 17 17 17 17 17 17 17 17 17 17 16 16 16 16 16 16 16 16 16 16 16 16 15 15 15 15 15 15 15 15
17 17 17 17 17 17 17 17 17 17 17 17 17 17 17 17 17 17 17 17 17 17 17 16 16 16 16 16 16 16 16 16 16 16 15 15 15 15 15 15 15 15 15
17 17 17 17 17 17 17 17 17 17 17 17 17 16 16 16 16 16 17 16 16 16 16 16 16 16 16 16 16 16 16 16 15 15 15 15 15 15 15 15 15 15 15
17 17 17 17 17 17 17 17 17 17 17 17 17 17 16 16 16 16 16 16 16 16 16 16 16 16 16 16 16 16 15 15 15 15 15 15 15 15 15 14 14 14 14
17 17 17 17 17 17 17 17 17 17 17 17 16 16 16 16 16 16 16 16 16 16 16 16 15 15 15 15 15 15 15 15 15 15 15 15 15 15 14 14 14 14 14
17 17 17 17 17 17 17 16 16 17 17 16 16 16 16 16 16 16 16 16 15 15 15 15 15 15 15 15 15 15 15 15 15 15 15 14 14 14 14 14 14 14 14
17 17 17 17 17 17 16 16 16 16 16 16 16 16 16 16 16 16 16 15 15 15 15 15 15 15 15 15 14 14 14 14 14 14 14 14 14 14 14 14 14 14 14
17 17 17 17 17 17 16 16 16 16 16 16 16 16 16 16 16 16 16 15 15 14 14 14 14 14 14 14 14 14 14 14 14 14 14 14 14 13 13 13 13 13 13
17 17 17 17 17 16 16 16 16 16 16 16 16 16 16 16 16 16 15 15 15 14 14 14 14 14 14 14 14 13 13 13 13 13 13 13 13 13 13 13 13 13 13
17 17 17 17 16 16 16 16 16 16 16 16 16 16 16 16 15 15 15 15 15 15 14 14 14 13 13 13 13 13 13 13 13 12 12 12 12 12 12 12 12 12 12
17 17 16 16 16 16 16 16 16 16 16 16 16 16 16 15 15 15 15 15 15 14 14 13 13 13 13 13 13 12 12 12 12 12 12 12 11 11 11 11 11 11 11
17 17 16 16 16 16 16 16 16 15 15 15 15 15 15 15 15 15 15 14 14 14 14 13 13 13 12 12 12 12 12 12 12 11 11 11 11 11 11 11 11 11 10
17 16 16 16 16 16 16 16 15 15 15 15 15 15 15 15 15 14 14 14 14 14 14 13 13 12 12 12 12 11 11 11 11 11 11 11 10 10 10 10 10 10 10
17 16 16 16 16 15 15 15 15 15 15 15 14 14 14 14 14 14 14 14 13 13 13 13 12 12 12 11 11 11 11 11 10 10 10 10 10 10 10 10 10 9 9
17 16 16 16 15 15 15 15 15 15 15 14 14 14 14 14 14 14 13 13 13 13 13 12 12 12 11 11 11 11 11 10 10 10 10 10 10 9 9 9 9 9 9
17 16 16 16 15 15 15 15 15 14 14 14 14 13 13 13 13 13 13 13 13 12 12 12 12 11 11 11 11 10 10 10 10 10 10 9 9 9 9 9 9 8 8
16 16 16 15 15 15 15 14 14 14 14 14 13 13 13 13 13 13 12 12 12 12 12 12 11 11 11 11 10 10 10 10 10 9 9 9 9 9 8 8 8 8 8
16 16 15 15 15 15 14 14 14 14 13 13 13 13 13 12 12 12 12 12 12 11 11 11 11 11 10 10 10 10 10 9 9 9 9 9 8 8 8 8 8 8 8
16 15 15 15 14 14 14 14 13 13 13 13 12 12 12 12 12 12 12 11 11 11 11 11 10 10 10 10 10 10 9 9 9 9 9 8 8 8 8 8 8 8 8
15 15 15 14 14 14 14 13 13 13 12 12 12 12 12 11 11 11 11 11 11 11 10 10 10 10 10 10 9 9 9 9 9 8 8 8 8 8 8 8 8 8 8
Wind_Speed
1 0 1 1 1 1 1 1 1 2 1 1 1 2 3 3 4 4 4 6 7 7 9 9 10 9 9 9 9 8 8 8 8 8 8 8 8 8 8 8 8 8 8
1 1 0 0 1 1 0 1 1 1 1 1 1 1 2 3 4 4 5 5 7 7 8 9 10 10 10 10 10 10 10 10 9 9 10 9 9 9 9 9 9 9 9
2 1 1 0 1 1 0 1 1 1 1 1 1 1 2 2 3 4 5 5 5 7 8 9 10 10 10 10 10 10 10 10 10 11 11 11 10 11 10 10 10 10 10
3 2 1 1 1 0 1 1 1 1 1 1 0 1 1 2 3 4 4 4 5 5 7 9 10 10 10 10 10 10 10 10 11 10 11 11 11 11 11 11 11 12 12
3 3 2 1 0 1 1 1 1 1 1 1 1 1 1 2 2 3 3 4 5 5 6 7 8 9 9 10 10 9 9 9 10 10 10 10 11 10 11 12 12 13 13
3 3 2 1 1 1 1 1 1 1 1 1 0 1 1 1 1 2 3 3 4 4 5 5 5 6 7 9 9 9 9 10 10 10 11 11 11 11 11 11 11 11 11
3 3 1 1 1 1 2 2 1 1 1 1 2 1 2 1 0 1 1 2 2 3 3 4 4 4 5 6 7 8 9 9 9 10 10 10 10 10 10 10 11 11 12
3 2 2 1 1 1 2 2 2 2 1 1 2 1 1 2 2 1 1 1 2 1 2 3 3 3 3 4 4 6 7 7 8 8 8 8 8 8 9 10 11 12 12
2 2 2 2 2 2 3 3 3 4 2 1 2 3 2 2 1 2 1 1 1 1 0 1 2 2 3 2 3 4 4 5 6 6 6 6 6 6 7 7 8 9 10
1 1 2 2 2 2 3 3 3 3 3 3 1 2 2 3 2 1 2 2 2 1 1 1 1 1 1 2 2 2 3 4 4 4 4 5 6 6 6 6 6 6 6
1 1 1 1 1 2 2 2 2 3 3 3 2 2 1 1 2 2 2 1 1 1 1 1 1 0 0 1 1 1 1 1 1 1 2 2 3 4 4 4 4 4 5
1 1 0 1 1 1 2 2 2 3 3 3 3 3 3 2 3 3 3 1 1 1 2 1 1 1 1 1 1 1 0 1 1 1 1 1 1 1 1 0 0 1 1
1 1 0 0 0 1 1 1 1 1 2 2 3 3 3 3 2 3 3 2 1 1 1 2 2 2 2 2 2 3 3 4 5 4 4 4 4 5 5 5 4 4 4
1 1 0 0 0 0 0 0 0 0 0 1 2 2 2 2 2 3 3 3 1 0 1 1 2 3 3 4 4 5 6 7 7 7 7 6 6 6 7 8 8 8 8
1 0 0 1 1 1 1 1 1 1 1 0 1 1 1 1 1 1 2 3 3 2 1 0 1 2 4 6 7 7 7 8 8 8 8 8 8 9 10 10 10 10 10
0 1 1 1 1 2 2 2 2 2 2 1 1 2 1 0 0 0 1 1 2 3 1 1 1 1 4 6 7 8 8 10 10 10 9 9 9 10 10 10 10 10 9
1 1 1 1 2 2 2 2 2 2 2 2 2 2 2 1 1 1 1 1 2 2 2 1 2 2 3 4 5 7 7 7 8 10 9 9 9 9 9 9 9 9 9
1 2 2 2 2 2 2 2 2 2 3 2 2 2 2 2 3 1 1 2 2 2 3 3 2 2 3 4 5 5 5 6 6 8 8 8 8 7 7 7 8 8 8
2 2 3 2 2 2 2 2 3 3 3 2 2 2 2 3 2 2 2 2 2 3 3 4 3 2 2 3 4 4 4 4 5 5 6 6 6 5 5 6 6 7 8
3 2 2 2 2 2 2 3 3 3 3 3 2 2 2 2 2 2 3 3 4 4 5 5 4 3 2 2 3 3 3 3 3 4 5 5 6 6 6 6 6 6 6
3 3 3 3 2 2 2 3 3 4 4 3 3 3 3 5 5 4 3 3 4 4 4 4 4 3 2 2 2 1 2 1 2 2 2 3 3 4 5 5 5 5 5
3 3 3 3 3 2 3 4 4 4 4 4 3 4 5 6 7 7 7 7 6 5 4 3 3 3 2 2 2 2 2 1 0 1 1 1 2 2 2 2 3 3 3
3 3 3 3 3 3 5 5 6 4 4 3 3 3 4 5 6 6 8 8 7 6 4 3 3 3 3 3 3 3 2 1 1 0 1 1 1 1 1 1 1 1 1
3 2 2 3 3 3 4 5 7 5 5 4 3 3 4 4 4 5 6 6 5 5 4 3 3 2 2 3 4 3 3 2 2 2 1 0 0 1 1 2 2 2 2
3 2 3 3 3 2 4 5 5 4 5 4 4 4 4 4 4 6 6 5 5 4 6 7 6 5 5 5 6 4 4 3 1 0 0 0 0 1 1 1 2 3 2
3 3 3 3 3 2 3 5 5 4 4 3 3 4 4 4 4 5 4 4 3 2 3 4 5 6 5 5 5 3 3 3 1 1 1 1 0 0 1 1 2 2 2
Wind_Direction
161 341 325 340 2 37 77 54 52 58 52 68 123 144 156 167 177 186 195 196 197 198 197 195 196 198 196 198 203 204 202 201 201 203 207 207 207 210 212 213 210 208 207
170 158 178 302 308 300 150 104 81 70 60 99 102 155 184 182 189 192 204 210 213 213 207 204 204 205 206 208 211 215 216 216 214 215 217 218 218 219 220 222 219 218 218
179 173 189 267 277 274 126 85 78 86 97 101 103 172 196 196 195 203 210 215 221 224 218 216 217 216 215 217 219 220 222 223 223 222 221 222 224 225 227 229 228 225 226
190 177 176 272 285 269 113 107 112 107 90 104 215 247 211 213 211 209 210 216 221 229 230 228 226 226 227 228 227 226 228 230 228 226 227 227 228 229 230 233 234 232 232
196 180 175 234 221 144 154 160 116 142 156 172 234 267 254 240 229 218 211 221 223 228 236 242 238 236 236 235 233 232 234 234 233 231 231 232 233 233 234 234 235 236 236
196 180 173 207 175 150 163 140 137 132 154 160 132 14 332 268 236 228 226 225 225 228 233 240 244 247 247 246 242 239 238 239 238 237 237 238 238 238 238 236 237 239 239
199 181 182 193 182 186 198 177 150 139 119 120 95 28 1 357 320 264 249 226 224 227 219 224 232 240 250 254 253 249 247 247 245 244 243 243 243 241 238 236 237 238 240
210 196 185 203 203 188 191 181 167 167 184 148 136 111 353 352 10 360 329 243 239 212 211 225 226 234 239 246 261 262 258 257 256 249 245 241 242 239 241 243 242 240 240
217 214 210 198 202 193 207 208 187 180 192 210 180 158 162 230 314 356 12 14 17 57 250 240 234 239 236 240 256 266 269 268 264 251 237 230 228 233 243 248 246 243 242
254 239 221 206 197 193 208 220 202 194 183 205 208 203 188 172 178 304 350 16 36 35 347 318 277 241 226 228 236 248 265 263 266 264 245 227 226 231 238 248 245 239 239
354 306 241 209 202 200 211 222 214 206 198 199 197 181 172 164 185 192 252 321 18 19 18 17 35 29 165 188 223 239 230 244 249 272 270 255 247 242 230 231 237 240 241
334 336 297 197 198 207 221 228 223 216 214 208 203 192 182 184 190 189 212 228 284 347 17 21 25 37 115 98 89 99 139 117 84 57 46 46 41 51 57 16 348 8 344
301 314 307 165 186 234 228 228 216 229 219 213 210 211 204 206 185 173 177 195 222 320 15 30 19 41 66 73 69 71 76 88 87 80 73 72 73 74 73 69 64 58 48
271 281 172 165 144 173 100 78 58 257 172 209 204 193 190 202 181 178 175 169 177 207 26 358 30 42 57 70 73 83 80 81 82 78 76 76 79 80 78 75 72 68 64
277 14 126 101 64 63 76 102 75 50 81 135 143 134 146 218 198 200 187 183 176 191 230 172 79 50 77 78 76 83 83 80 81 81 80 79 83 85 82 78 76 74 71
61 89 69 73 75 71 79 93 86 61 73 50 72 92 80 33 111 147 182 201 193 178 178 86 81 63 84 89 81 83 82 79 76 79 80 80 81 83 82 79 75 73 72
109 124 118 97 88 82 84 96 90 84 82 57 50 69 48 41 63 66 104 116 118 131 151 120 78 70 83 94 87 86 83 82 81 79 79 79 80 79 77 77 75 73 71
119 122 116 103 94 85 84 99 102 93 94 83 70 71 46 55 56 56 97 112 117 122 144 139 116 88 84 102 96 90 85 84 86 82 80 79 78 76 76 79 79 77 76
111 105 106 104 97 94 95 98 108 106 100 93 83 81 64 74 63 62 85 96 103 110 119 132 120 94 90 98 88 79 75 65 79 80 76 76 76 75 75 77 79 80 82
111 110 105 106 104 98 98 105 106 107 99 84 74 74 74 84 88 88 88 93 105 107 112 121 120 110 103 96 97 92 77 51 51 56 61 66 69 70 69 71 74 77 79
107 107 106 99 99 102 109 121 119 112 105 90 70 61 68 78 84 89 99 107 112 115 119 122 124 119 120 122 132 128 111 78 48 45 49 41 48 53 52 55 60 66 74
94 89 91 96 89 88 98 112 117 109 102 94 80 64 69 69 78 78 85 92 103 120 130 131 138 150 166 162 142 142 132 109 74 23 55 37 41 35 26 39 42 54 66
109 98 96 96 90 75 90 107 109 109 99 88 85 80 78 73 76 82 77 77 76 82 104 140 150 170 176 174 160 154 156 146 170 117 110 76 36 12 342 343 345 349 350
136 129 114 105 97 76 91 106 110 101 93 84 82 92 94 82 82 93 89 77 67 60 71 95 137 153 152 158 164 161 151 122 89 75 87 128 4 315 321 319 311 298 292
135 129 119 113 105 78 90 105 111 101 91 78 70 77 91 88 84 98 97 88 72 54 65 79 91 93 95 109 130 124 120 121 118 120 51 145 266 307 304 303 326 324 292
138 128 115 111 110 93 98 114 118 112 103 90 70 61 69 87 92 107 111 109 95 64 67 70 68 67 77 90 110 133 153 148 137 178 174 170 161 21 290 287 312 323 328
Height
1560 1561 1561 1562 1563 1563 1564 1565 1565 1566 1567 1567 1567 1568 1568 1569 1569 1569 1570 1570 1571 1571 1572 1573 1574 1575 1575 1576 1577 1578 1579 1579 1580 1581 1582 1583 1583 1584 1585 1586 1586 1587 1588
1561 1561 1562 1562 1563 1564 1565 1565 1566 1566 1567 1567 1568 1568 1569 1569 1569 1569 1570 1570 1571 1571 1572 1572 1573 1574 1575 1575 1576 1577 1578 1578 1579 1580 1581 1581 1582 1583 1583 1584 1585 1585 1586
1561 1561 1562 1563 1564 1564 1565 1565 1566 1566 1567 1567 1568 1568 1569 1569 1569 1569 1569 1570 1570 1571 1571 1572 1573 1573 1574 1575 1575 1576 1577 1577 1578 1579 1579 1580 1580 1581 1581 1582 1583 1583 1584
1560 1561 1562 1563 1563 1564 1565 1565 1566 1566 1567 1567 1568 1568 1568 1568 1569 1569 1569 1569 1569 1570 1570 1571 1572 1572 1573 1573 1574 1574 1575 1576 1576 1577 1577 1578 1578 1579 1579 1580 1580 1581 1582
1560 1561 1561 1562 1563 1563 1564 1565 1565 1566 1566 1567 1567 1567 1567 1567 1568 1568 1568 1568 1568 1569 1569 1570 1571 1571 1572 1572 1572 1573 1573 1574 1574 1575 1575 1576 1576 1576 1577 1577 1578 1578 1579
1559 1560 1561 1561 1562 1563 1563 1564 1564 1565 1565 1566 1566 1566 1566 1566 1566 1566 1566 1567 1567 1567 1568 1569 1569 1570 1570 1571 1571 1571 1572 1572 1572 1573 1573 1573 1574 1574 1574 1575 1575 1575 1576
1558 1559 1560 1560 1561 1561 1562 1563 1563 1563 1564 1564 1564 1564 1564 1565 1565 1565 1565 1565 1565 1566 1566 1567 1568 1568 1569 1569 1569 1569 1570 1570 1570 1570 1570 1571 1571 1571 1571 1571 1572 1572 1573
1558 1558 1558 1559 1559 1560 1561 1561 1562 1562 1562 1563 1563 1563 1563 1564 1563 1563 1563 1563 1563 1564 1564 1565 1566 1566 1566 1567 1567 1567 1567 1567 1567 1567 1567 1568 1568 1568 1568 1568 1568 1569 1569
1556 1557 1557 1558 1558 1558 1559 1560 1560 1560 1561 1561 1562 1562 1562 1562 1562 1562 1562 1562 1562 1562 1563 1563 1563 1564 1564 1564 1564 1564 1564 1564 1565 1565 1565 1565 1565 1565 1565 1565 1565 1565 1565
1556 1556 1556 1556 1556 1557 1557 1558 1558 1559 1559 1559 1560 1560 1561 1561 1561 1560 1561 1561 1561 1561 1561 1561 1561 1561 1561 1561 1561 1561 1561 1561 1562 1562 1562 1562 1562 1562 1562 1562 1562 1561 1562
1555 1555 1555 1555 1555 1555 1556 1556 1556 1557 1557 1557 1557 1558 1558 1558 1559 1559 1558 1559 1559 1559 1559 1559 1559 1559 1559 1559 1559 1559 1559 1559 1559 1559 1559 1559 1559 1559 1558 1559 1559 1559 1559
1554 1554 1554 1554 1554 1554 1554 1554 1554 1554 1555 1555 1555 1555 1556 1556 1556 1556 1556 1556 1556 1557 1557 1557 1557 1557 1557 1556 1556 1556 1556 1556 1557 1557 1557 1556 1556 1556 1556 1557 1556 1556 1556
1553 1552 1552 1552 1552 1552 1552 1552 1552 1552 1552 1552 1552 1553 1553 1554 1554 1554 1554 1554 1554 1555 1555 1555 1555 1555 1555 1555 1554 1554 1554 1554 1554 1554 1554 1554 1554 1554 1554 1554 1554 1554 1553
1551 1551 1551 1551 1551 1551 1551 1551 1550 1550 1550 1550 1550 1551 1551 1551 1551 1552 1552 1552 1552 1553 1553 1553 1554 1553 1553 1553 1553 1553 1553 1553 1553 1552 1552 1552 1552 1551 1552 1551 1551 1551 1551
1550 1550 1550 1549 1549 1549 1549 1549 1548 1548 1548 1548 1548 1548 1549 1549 1549 1549 1550 1550 1551 1550 1551 1551 1552 1552 1552 1552 1552 1552 1552 1551 1551 1551 1551 1550 1550 1549 1549 1549 1549 1549 1548
1550 1549 1549 1548 1548 1548 1548 1547 1547 1547 1546 1546 1546 1546 1547 1547 1547 1547 1547 1548 1548 1549 1548 1549 1550 1550 1551 1551 1551 1550 1550 1550 1550 1550 1550 1549 1549 1548 1548 1548 1548 1547 1547
1549 1548 1548 1548 1547 1547 1547 1546 1546 1545 1545 1545 1545 1545 1545 1545 1545 1545 1546 1546 1546 1547 1547 1548 1548 1549 1549 1549 1549 1550 1550 1550 1549 1549 1549 1548 1548 1548 1547 1547 1546 1546 1546
1548 1548 1547 1547 1547 1546 1546 1545 1545 1545 1544 1544 1544 1544 1544 1544 1544 1544 1544 1544 1545 1545 1546 1546 1547 1548 1548 1549 1549 1549 1549 1549 1549 1549 1548 1548 1548 1548 1547 1546 1546 1545 1545
1547 1547 1547 1546 1546 1546 1545 1545 1545 1544 1544 1544 1543 1543 1543 1543 1543 1543 1543 1543 1543 1544 1545 1545 1546 1547 1547 1548 1548 1548 1549 1549 1549 1548 1548 1548 1548 1547 1547 1546 1546 1545 1544
1546 1546 1546 1546 1545 1545 1545 1545 1544 1544 1544 1543 1543 1543 1543 1543 1543 1543 1542 1543 1543 1543 1544 1544 1545 1546 1547 1547 1548 1548 1548 1548 1548 1548 1548 1548 1548 1547 1547 1546 1545 1545 1544
1545 1545 1545 1545 1544 1544 1544 1544 1544 1543 1543 1543 1543 1542 1542 1542 1542 1542 1542 1542 1542 1542 1543 1543 1544 1545 1546 1546 1547 1547 1548 1548 1548 1548 1548 1548 1547 1547 1546 1546 1545 1545 1544
1544 1544 1544 1544 1543 1543 1543 1543 1543 1543 1542 1542 1542 1542 1542 1542 1542 1542 1542 1542 1542 1542 1542 1543 1543 1544 1545 1546 1546 1547 1547 1547 1547 1548 1547 1547 1547 1546 1546 1546 1545 1545 1544
1543 1543 1543 1543 1542 1542 1542 1542 1542 1542 1542 1542 1542 1542 1542 1542 1542 1542 1542 1542 1542 1542 1543 1543 1543 1543 1544 1545 1545 1546 1546 1546 1546 1547 1547 1546 1546 1546 1546 1545 1545 1544 1544
1542 1542 1542 1542 1542 1542 1542 1542 1542 1541 1541 1541 1541 1541 1542 1542 1542 1542 1542 1542 1542 1542 1542 1542 1543 1543 1544 1544 1545 1545 1545 1546 1546 1546 1546 1546 1546 1545 1545 1545 1544 1544 1543
1540 1540 1540 1541 1541 1541 1541 1541 1541 1541 1541 1541 1541 1542 1542 1542 1542 1543 1543 1543 1542 1543 1543 1543 1543 1543 1543 1544 1544 1544 1544 1544 1544 1545 1545 1545 1544 1544 1544 1544 1543 1543 1542
1539 1539 1539 1539 1539 1540 1540 1540 1540 1540 1540 1541 1541 1542 1542 1542 1543 1543 1543 1543 1543 1543 1543 1543 1543 1543 1543 1543 1543 1543 1543 1543 1543 1543 1543 1543 1543 1543 1543 1543 1542 1542 1541